LOT87M EPWA-EPKT

Flight info

Callsign LOT87M
Flight time 0h 28m
Altitude 22000
Route EVINA DCT KUKAM
Aircraft E170/M-SDE3GILORVW/S

Departure

Time 2026-05-06 15:26
Airport Warsaw Chopin Airport (EPWA)

Arrival

Time 2026-05-06 15:55
Airport Katowice Wojciech Korfanty International Airport (EPKT)
Time Latitude Longitude Altitude Speed Heading
2026-05-06 15:00 52.17232 20.96635 336 ft 0 kts 207°
2026-05-06 15:22 52.17223 20.96627 336 ft 3 kts 208°
2026-05-06 15:22 52.17193 20.96606 336 ft 6 kts 199°
2026-05-06 15:22 52.17142 20.96614 335 ft 9 kts 151°
2026-05-06 15:22 52.17077 20.96670 336 ft 12 kts 154°
2026-05-06 15:23 52.16992 20.96744 334 ft 15 kts 152°
2026-05-06 15:23 52.16888 20.96835 333 ft 18 kts 152°
2026-05-06 15:23 52.16774 20.96933 335 ft 19 kts 151°
2026-05-06 15:23 52.16682 20.97018 334 ft 14 kts 152°
2026-05-06 15:24 52.16586 20.97099 336 ft 16 kts 152°
2026-05-06 15:24 52.16493 20.97180 335 ft 16 kts 152°
2026-05-06 15:24 52.16452 20.97185 335 ft 5 kts 244°
2026-05-06 15:24 52.16450 20.97156 334 ft 1 kts 294°
2026-05-06 15:25 52.16451 20.97151 334 ft 0 kts 294°
2026-05-06 15:25 52.16473 20.97073 335 ft 28 kts 294°
2026-05-06 15:25 52.16516 20.96901 333 ft 62 kts 289°
2026-05-06 15:25 52.16753 20.96024 336 ft 132 kts 291°
2026-05-06 15:26 52.17168 20.94781 746 ft 152 kts 292°
2026-05-06 15:26 52.17657 20.93282 1849 ft 154 kts 291°
2026-05-06 15:26 52.18153 20.91675 2949 ft 164 kts 289°
2026-05-06 15:27 52.18511 20.89791 3986 ft 187 kts 273°
2026-05-06 15:27 52.18387 20.87600 5121 ft 204 kts 252°
2026-05-06 15:27 52.17954 20.85275 6317 ft 221 kts 252°
2026-05-06 15:27 52.17534 20.82849 7432 ft 232 kts 253°
2026-05-06 15:28 52.17095 20.80075 7684 ft 269 kts 255°
2026-05-06 15:28 52.16622 20.77123 8606 ft 276 kts 249°
2026-05-06 15:28 52.15562 20.74521 9677 ft 281 kts 225°
2026-05-06 15:28 52.13881 20.72767 10483 ft 298 kts 206°
2026-05-06 15:29 52.11966 20.71436 11479 ft 300 kts 206°
2026-05-06 15:29 52.10045 20.70104 12661 ft 300 kts 204°
2026-05-06 15:29 52.08113 20.68850 13838 ft 301 kts 202°
2026-05-06 15:29 52.06128 20.67690 14903 ft 306 kts 201°
2026-05-06 15:30 52.04089 20.66607 15965 ft 310 kts 200°
2026-05-06 15:30 52.02008 20.65526 16933 ft 316 kts 201°
2026-05-06 15:30 51.99912 20.64418 17930 ft 319 kts 201°
2026-05-06 15:30 51.97972 20.62977 19320 ft 299 kts 211°
2026-05-06 15:31 51.96133 20.61426 20369 ft 301 kts 209°
2026-05-06 15:31 51.94233 20.59899 21146 ft 308 kts 209°
2026-05-06 15:31 51.92283 20.58316 21757 ft 317 kts 210°
2026-05-06 15:32 51.88360 20.54970 21843 ft 327 kts 211°
2026-05-06 15:32 51.86314 20.53173 21884 ft 351 kts 211°
2026-05-06 15:32 51.84087 20.51239 21737 ft 375 kts 211°
2026-05-06 15:32 51.81776 20.49274 21797 ft 380 kts 210°
2026-05-06 15:33 51.79428 20.47318 21736 ft 379 kts 210°
2026-05-06 15:33 51.77090 20.45348 21769 ft 379 kts 210°
2026-05-06 15:33 51.74759 20.43359 21771 ft 379 kts 210°
2026-05-06 15:33 51.72425 20.41364 21764 ft 379 kts 210°
2026-05-06 15:34 51.70091 20.39376 21773 ft 379 kts 210°
2026-05-06 15:34 51.67760 20.37400 21763 ft 379 kts 210°
2026-05-06 15:34 51.65430 20.35431 21770 ft 379 kts 210°
2026-05-06 15:34 51.63090 20.33457 21771 ft 379 kts 210°
2026-05-06 15:35 51.60751 20.31484 21769 ft 379 kts 210°
2026-05-06 15:35 51.58418 20.29517 21770 ft 379 kts 210°
2026-05-06 15:35 51.56086 20.27553 21768 ft 379 kts 210°
2026-05-06 15:35 51.53749 20.25586 21768 ft 379 kts 210°
2026-05-06 15:36 51.51412 20.23623 21782 ft 379 kts 210°
2026-05-06 15:36 51.49075 20.21660 21803 ft 379 kts 210°
2026-05-06 15:36 51.46735 20.19699 21433 ft 376 kts 210°
2026-05-06 15:36 51.44434 20.17767 20463 ft 371 kts 210°
2026-05-06 15:37 51.42201 20.15889 19968 ft 354 kts 210°
2026-05-06 15:37 51.40040 20.14076 19568 ft 354 kts 210°
2026-05-06 15:37 51.37872 20.12258 19184 ft 348 kts 210°
2026-05-06 15:37 51.35729 20.10477 18591 ft 346 kts 209°
2026-05-06 15:38 51.33613 20.08721 18177 ft 340 kts 210°
2026-05-06 15:38 51.31525 20.06962 17708 ft 340 kts 210°
2026-05-06 15:38 51.29460 20.05220 17243 ft 339 kts 210°
2026-05-06 15:38 51.27357 20.03459 16758 ft 337 kts 209°
2026-05-06 15:39 51.25295 20.01744 16294 ft 338 kts 209°
2026-05-06 15:39 51.23222 20.00014 15950 ft 334 kts 209°
2026-05-06 15:39 51.21170 19.98302 15712 ft 324 kts 209°
2026-05-06 15:39 51.19282 19.96744 15435 ft 289 kts 209°
2026-05-06 15:40 51.17531 19.95306 15223 ft 284 kts 209°
2026-05-06 15:40 51.15744 19.93849 14942 ft 291 kts 209°
2026-05-06 15:40 51.13962 19.92405 14695 ft 286 kts 209°
2026-05-06 15:40 51.12189 19.90967 14477 ft 285 kts 208°
2026-05-06 15:41 51.10411 19.89557 14241 ft 287 kts 208°
2026-05-06 15:41 51.08650 19.88124 14003 ft 285 kts 210°
2026-05-06 15:41 51.06898 19.86610 13756 ft 285 kts 210°
2026-05-06 15:41 51.05157 19.85094 13514 ft 287 kts 210°
2026-05-06 15:42 51.03394 19.83607 13253 ft 287 kts 209°
2026-05-06 15:42 51.01623 19.82161 12992 ft 284 kts 208°
2026-05-06 15:42 50.99864 19.80746 12726 ft 282 kts 208°
2026-05-06 15:42 50.98137 19.79350 12474 ft 280 kts 209°
2026-05-06 15:43 50.96399 19.77934 12215 ft 280 kts 209°
2026-05-06 15:43 50.94667 19.76513 11960 ft 279 kts 209°
2026-05-06 15:43 50.92949 19.75102 11706 ft 277 kts 209°
2026-05-06 15:43 50.91245 19.73706 11452 ft 275 kts 209°
2026-05-06 15:44 50.89543 19.72317 11209 ft 275 kts 209°
2026-05-06 15:44 50.87849 19.70939 10959 ft 274 kts 208°
2026-05-06 15:44 50.86156 19.69561 10712 ft 272 kts 208°
2026-05-06 15:44 50.84490 19.68209 10470 ft 271 kts 208°
2026-05-06 15:45 50.82811 19.66847 10228 ft 271 kts 208°
2026-05-06 15:45 50.81129 19.65481 9983 ft 270 kts 208°
2026-05-06 15:45 50.79468 19.64132 9749 ft 267 kts 208°
2026-05-06 15:45 50.77814 19.62792 9491 ft 267 kts 208°
2026-05-06 15:46 50.76159 19.61451 9229 ft 267 kts 208°
2026-05-06 15:46 50.74516 19.60121 8973 ft 265 kts 208°
2026-05-06 15:46 50.72879 19.58787 8709 ft 264 kts 208°
2026-05-06 15:46 50.71250 19.57453 8458 ft 264 kts 208°
2026-05-06 15:47 50.69623 19.56129 8212 ft 263 kts 208°
2026-05-06 15:47 50.67996 19.54819 7959 ft 262 kts 208°
2026-05-06 15:47 50.66375 19.53518 7708 ft 262 kts 208°
2026-05-06 15:47 50.64768 19.52230 7463 ft 261 kts 208°
2026-05-06 15:48 50.63173 19.50951 7600 ft 259 kts 208°
2026-05-06 15:48 50.61537 19.49634 7345 ft 268 kts 208°
2026-05-06 15:48 50.59888 19.48306 6896 ft 266 kts 208°
2026-05-06 15:48 50.58259 19.46996 6532 ft 259 kts 208°
2026-05-06 15:49 50.56684 19.45731 6225 ft 254 kts 208°
2026-05-06 15:49 50.55109 19.44469 5861 ft 252 kts 208°
2026-05-06 15:49 50.53558 19.43226 5535 ft 255 kts 208°
2026-05-06 15:49 50.51981 19.41962 5221 ft 256 kts 208°
2026-05-06 15:50 50.50410 19.40704 4840 ft 253 kts 208°
2026-05-06 15:50 50.48886 19.39403 4550 ft 245 kts 217°
2026-05-06 15:50 50.47835 19.37381 4137 ft 242 kts 246°
2026-05-06 15:50 50.47454 19.34879 3900 ft 233 kts 267°
2026-05-06 15:51 50.47517 19.33226 3770 ft 221 kts 272°
2026-05-06 15:51 50.47566 19.30932 3560 ft 200 kts 265°
2026-05-06 15:51 50.47512 19.28845 3329 ft 184 kts 265°
2026-05-06 15:51 50.47536 19.26963 3131 ft 161 kts 268°
2026-05-06 15:52 50.47550 19.25318 2919 ft 142 kts 265°
2026-05-06 15:52 50.47548 19.23835 2735 ft 132 kts 267°
2026-05-06 15:52 50.47554 19.22381 2573 ft 135 kts 266°
2026-05-06 15:52 50.47565 19.20895 2390 ft 136 kts 267°
2026-05-06 15:53 50.47571 19.19418 2196 ft 135 kts 265°
2026-05-06 15:53 50.47582 19.17934 2038 ft 137 kts 267°
2026-05-06 15:53 50.47593 19.16449 1882 ft 136 kts 266°
2026-05-06 15:53 50.47585 19.14966 1675 ft 136 kts 265°
2026-05-06 15:54 50.47588 19.13490 1496 ft 135 kts 267°
2026-05-06 15:54 50.47591 19.12033 1282 ft 137 kts 267°
2026-05-06 15:54 50.47594 19.10524 1091 ft 134 kts 265°
2026-05-06 15:54 50.47598 19.09127 1000 ft 114 kts 268°
2026-05-06 15:55 50.47600 19.08067 995 ft 79 kts 269°
2026-05-06 15:55 50.47601 19.07390 999 ft 48 kts 268°
2026-05-06 15:55 50.47554 19.07042 998 ft 23 kts 244°
2026-05-06 15:55 50.47481 19.06833 996 ft 20 kts 240°
2026-05-06 15:56 50.47417 19.06660 996 ft 12 kts 230°
2026-05-06 15:56 50.47332 19.06626 996 ft 14 kts 181°
2026-05-06 15:56 50.47249 19.06654 996 ft 13 kts 127°
2026-05-06 15:56 50.47236 19.06767 996 ft 12 kts 90°
2026-05-06 15:57 50.47236 19.06893 996 ft 9 kts 90°
2026-05-06 15:57 50.47236 19.06902 996 ft 0 kts 90°
2026-05-06 15:58 50.47236 19.06903 996 ft 1 kts 90°
2026-05-06 15:58 50.47235 19.06934 996 ft 5 kts 91°
2026-05-06 15:58 50.47236 19.07007 996 ft 8 kts 89°
2026-05-06 15:58 50.47236 19.07095 996 ft 4 kts 90°
2026-05-06 15:59 50.47236 19.07136 996 ft 2 kts 97°
2026-05-06 15:59 50.47227 19.07151 998 ft 1 kts 164°
2026-05-06 15:59 50.47217 19.07151 997 ft 3 kts 187°
2026-05-06 15:59 50.47201 19.07148 1000 ft 0 kts 183°
2026-05-06 16:00 50.47195 19.07148 996 ft 1 kts 178°
2026-05-06 16:00 50.47182 19.07149 998 ft 2 kts 180°
2026-05-06 16:00 50.47181 19.07149 998 ft 0 kts 180°